Weather WX

World > North America > United States > Ohio

Brookfield, Ohio Regional Weather

Lat: 41.23N, Lon: 80.57W
Wx Zone: OHZ023
Feedback

Brookfield, OH Regional Weather

Expires:201906251100;;048174
ASUS41 KCLE 251012
RWRCLE
OHIO REGIONAL WEATHER ROUNDUP
NATIONAL WEATHER SERVICE WILMINGTON, OH
600 AM EDT TUE JUN 25 2019

NOTE: "FAIR" INDICATES FEW OR NO CLOUDS BELOW 12,000 FEET WITH NO
SIGNIFICANT WEATHER AND/OR OBSTRUCTIONS TO VISIBILITY.


OHZ009>014-019>023-028>033-038-089-251100-
   NORTHEAST OHIO
  
CITY           SKY/WX    TMP DP  RH WIND       PRES   REMARKS
CLE-HOPKINS    FAIR      67  63  87 SW8       29.83R                  
CLE-LAKEFRONT  FAIR      67  62  84 SW14      29.80R                  
CUY CO. ARPT   FAIR      66  63  90 MISG      29.83R                  
LORAIN-ELYRIA  FAIR      65  57  75 W10       29.83R                  
ASHTABULA      FAIR      66  65  96 SW9       29.81R                  
AKRON-CANTON   FAIR      67  63  87 W9        29.85R                  
WOOSTER        FAIR      65  62  90 SW5       29.86R                  
MANSFIELD      FAIR      64  63  96 SW7       29.86R                  
YOUNGSTOWN     CLOUDY    67  64  90 SW8       29.83R                  
$$
 

SKY/WX - Weather  TMP - Temperature  DP - Dew Point  RH - Relative Humidity
WIND - Wind Direction/Speed PRES - Barometric Pressure VSB - Visibility
WCI - Wind Chill Index E13G22 Wind - East Wind 13 mph/Gusts of 22 mph